DW5310 Weather Reports


time (UTC)temp
C
wind
direction
speed
KPH
gust
KPH
rain 1hr
cm
rain 24hr
cm
rain mn
cm
humidity
%
barometer
mb
20260509060506 13 35 0.0 0.0 0.00 0.00 0.00 67 1019.5
20260509060005 13 35 0.0 0.0 0.00 0.00 0.00 66 1020.5
20260509055504 13 35 0.0 0.0 0.00 0.00 0.00 66 1020.5
20260509055005 13 35 0.0 0.0 0.00 0.00 0.00 66 1020.5
20260509054505 13 35 0.0 0.0 0.00 0.00 0.00 65 1020.5
20260509054005 13 35 0.0 0.0 0.00 0.00 0.00 64 1020.5
20260509053506 14 35 0.0 0.0 0.00 0.00 0.00 64 1020.5
20260509053005 14 35 0.0 0.0 0.00 0.00 0.00 63 1020.5
20260509052505 14 35 0.0 0.0 0.00 0.00 0.00 63 1020.5
20260509052005 14 86 0.0 0.0 0.00 0.00 0.00 63 1020.5
20260509051505 14 39 0.0 0.0 0.00 0.00 0.00 63 1020.5
20260509050505 15 55 0.0 0.0 0.00 0.00 0.00 61 1020.5
20260509050004 15 55 0.0 0.0 0.00 0.00 0.00 61 1020.5
20260509045005 15 58 0.0 0.0 0.00 0.00 0.00 60 1020.5
20260509044505 15 305 0.0 0.0 0.00 0.00 0.00 60 1020.5
20260509044005 15 305 0.0 0.0 0.00 0.00 0.00 60 1020.5
20260509043505 15 305 0.0 0.0 0.00 0.00 0.00 59 1020.5
20260509043005 15 305 0.0 0.0 0.00 0.00 0.00 59 1020.5
20260509042504 15 305 0.0 0.0 0.00 0.00 0.00 59 1020.5
20260509042005 15 305 0.0 0.0 0.00 0.00 0.00 58 1020.5
20260509041004 15 305 0.0 0.0 0.00 0.00 0.00 58 1020.5
20260509040505 16 305 0.0 0.0 0.00 0.00 0.00 58 1020.5
20260509040005 16 305 0.0 0.0 0.00 0.00 0.00 58 1020.5
20260509035504 16 305 0.0 0.0 0.00 0.00 0.00 57 1020.5
20260509035005 16 305 0.0 0.0 0.00 0.00 0.00 57 1020.5
20260509034004 16 305 0.0 0.0 0.00 0.00 0.00 56 1019.5
20260509033004 16 305 0.0 0.0 0.00 0.00 0.00 56 1019.5
20260509031005 16 305 0.0 0.0 0.00 0.00 0.00 54 1019.5
20260509030505 16 305 0.0 0.0 0.00 0.00 0.00 54 1019.5
20260509025505 16 305 0.0 0.0 0.00 0.00 0.00 53 1019.5
20260509025004 16 305 0.0 0.0 0.00 0.00 0.00 53 1019.5
20260509024504 17 305 0.0 0.0 0.00 0.00 0.00 52 1019.5
20260509024005 17 305 0.0 0.0 0.00 0.00 0.00 52 1019.5
20260509023504 17 305 0.0 0.0 0.00 0.00 0.00 52 1019.5
20260509023004 17 305 0.0 0.0 0.00 0.00 0.00 52 1019.5
20260509022504 17 305 0.0 0.0 0.00 0.00 0.00 52 1019.5
20260509022004 17 305 0.0 0.0 0.00 0.00 0.00 52 1019.5
20260509021504 17 305 0.0 0.0 0.00 0.00 0.00 51 1019.5
20260509020504 17 305 0.0 0.0 0.00 0.00 0.00 51 1019.5
20260509020006 17 305 0.0 0.0 0.00 0.00 0.00 51 1019.5
20260509015504 17 305 0.0 0.0 0.00 0.00 0.00 50 1019.5
20260509015004 17 282 0.0 0.0 0.00 0.00 0.00 50 1019.5
20260509014004 18 246 0.0 0.0 0.00 0.00 0.00 50 1019.5
20260509013005 18 267 0.0 0.0 0.00 0.00 0.00 50 1020.5
20260509011505 18 291 0.0 0.0 0.00 0.00 0.00 50 1019.5
20260509011005 18 305 0.0 0.0 0.00 0.00 0.00 50 1019.5
20260509005504 18 191 0.0 4.8 0.00 0.00 0.00 50 1019.5
20260509004504 18 238 0.0 8.0 0.00 0.00 0.00 50 1019.5
20260509004005 18 245 0.0 8.0 0.00 0.00 0.00 50 1019.5
20260509003505 18 68 0.0 0.0 0.00 0.00 0.00 50 1019.5
20260509003005 18 305 0.0 0.0 0.00 0.00 0.00 50 1020.5
20260509002504 18 214 0.0 0.0 0.00 0.00 0.00 49 1020.5
20260509002004 18 238 0.0 0.0 0.00 0.00 0.00 50 1020.5
20260509001504 18 305 0.0 3.2 0.00 0.00 0.00 50 1020.5
20260509001005 18 40 0.0 12.9 0.00 0.00 0.00 50 1020.5
20260509000504 18 215 0.0 12.9 0.00 0.00 0.00 50 1020.5
20260509000004 18 141 1.6 12.9 0.00 0.00 0.00 50 1020.5
20260508235504 18 75 0.0 4.8 0.00 0.00 0.00 50 1020.5
20260508235004 18 234 0.0 3.2 0.00 0.00 0.00 50 1020.5
20260508234504 18 279 0.0 4.8 0.00 0.00 0.00 50 1019.5
20260508234004 18 88 0.0 8.0 0.00 0.00 0.00 50 1019.5
20260508233505 18 31 1.6 8.0 0.00 0.00 0.00 50 1019.5
20260508233004 18 215 0.0 8.0 0.00 0.00 0.00 50 1019.5
20260508232505 18 133 1.6 8.0 0.00 0.00 0.00 50 1019.5
20260508232004 18 259 0.0 3.2 0.00 0.00 0.00 50 1019.5
20260508231004 18 248 0.0 11.3 0.00 0.00 0.00 50 1019.5
20260508230505 18 215 1.6 12.9 0.00 0.00 0.00 50 1019.5
20260508230005 18 145 6.4 12.9 0.00 0.00 0.00 51 1019.5
20260508225503 18 50 0.0 8.0 0.00 0.00 0.00 50 1019.5
20260508225004 18 58 0.0 12.9 0.00 0.00 0.00 51 1019.5
20260508224504 18 130 4.8 12.9 0.00 0.00 0.00 51 1020.5
20260508224004 18 113 0.0 3.2 0.00 0.00 0.00 51 1020.5
20260508223505 18 288 0.0 8.0 0.00 0.00 0.00 51 1020.5
20260508223004 18 156 1.6 8.0 0.00 0.00 0.00 52 1020.5
20260508222504 17 207 1.6 8.0 0.00 0.00 0.00 51 1020.5
20260508222004 18 114 0.0 14.5 0.00 0.00 0.00 51 1020.5
20260508221504 17 232 1.6 14.5 0.00 0.00 0.00 51 1020.5
20260508221005 18 183 0.0 8.0 0.00 0.00 0.00 51 1020.5
20260508220505 17 231 0.0 12.9 0.00 0.00 0.00 51 1020.5
20260508220004 17 149 4.8 12.9 0.00 0.00 0.00 52 1019.5
20260508215504 17 115 0.0 12.9 0.00 0.00 0.00 52 1019.5
20260508214503 17 161 0.0 11.3 0.00 0.00 0.00 52 1020.5
20260508214004 17 203 1.6 12.9 0.00 0.00 0.00 51 1020.5
20260508213504 17 107 1.6 14.5 0.00 0.00 0.00 52 1020.5
20260508212504 17 114 3.2 12.9 0.00 0.00 0.00 53 1020.5
20260508212004 17 282 1.6 9.7 0.00 0.00 0.00 53 1020.5
20260508211004 16 164 3.2 14.5 0.00 0.00 0.00 54 1020.5
20260508210504 16 141 4.8 14.5 0.00 0.00 0.00 54 1020.5
20260508205503 16 188 6.4 11.3 0.00 0.00 0.00 55 1020.5
20260508204503 16 237 0.0 16.1 0.00 0.00 0.00 56 1020.5
20260508204004 16 7 8.0 16.1 0.00 0.00 0.00 56 1020.5
20260508203503 16 189 1.6 11.3 0.00 0.00 0.00 56 1020.5
20260508203003 16 151 4.8 11.3 0.00 0.00 0.00 56 1020.5
20260508202505 16 249 1.6 9.7 0.00 0.00 0.00 56 1020.5
20260508202004 15 238 1.6 8.0 0.00 0.00 0.00 56 1020.5
20260508201504 15 267 0.0 16.1 0.00 0.00 0.00 57 1020.5
20260508201004 15 215 3.2 16.1 0.00 0.00 0.00 57 1020.5
20260508200504 16 192 4.8 14.5 0.00 0.00 0.00 57 1020.5
20260508200004 15 218 6.4 14.5 0.00 0.00 0.00 57 1020.5
20260508195503 15 219 4.8 12.9 0.00 0.00 0.00 57 1020.5
20260508195004 15 219 4.8 19.3 0.00 0.00 0.00 58 1020.5
20260508194503 15 254 4.8 19.3 0.00 0.00 0.00 58 1020.5
20260508194004 15 222 0.0 8.0 0.00 0.00 0.00 60 1020.5
20260508193504 15 248 0.0 8.0 0.00 0.00 0.00 60 1020.5
20260508193007 15 244 0.0 8.0 0.00 0.00 0.00 60 1020.5
20260508192507 14 203 1.6 8.0 0.00 0.00 0.00 60 1020.5
20260508192006 14 177 1.6 11.3 0.00 0.00 0.00 62 1020.5
20260508191506 13 262 0.0 11.3 0.00 0.00 0.00 62 1020.5
20260508191006 13 126 1.6 11.3 0.00 0.00 0.00 62 1020.5
20260508190506 13 275 0.0 14.5 0.00 0.00 0.00 61 1020.5
20260508185506 13 165 1.6 14.5 0.00 0.00 0.00 61 1020.5
20260508185007 14 270 0.0 14.5 0.00 0.00 0.00 62 1020.5
20260508184506 13 151 0.0 14.5 0.00 0.00 0.00 63 1021.5
20260508184007 13 146 3.2 12.9 0.00 0.00 0.00 64 1021.5
20260508182506 13 213 3.2 16.1 0.00 0.00 0.00 65 1020.5
20260508181506 13 231 0.0 11.3 0.00 0.00 0.00 66 1020.5
20260508181006 13 217 1.6 11.3 0.00 0.00 0.00 67 1020.5
20260508180006 13 253 0.0 11.3 0.00 0.00 0.00 67 1020.5
20260508175507 13 221 1.6 12.9 0.00 0.00 0.00 68 1020.5
20260508175007 13 256 3.2 12.9 0.00 0.00 0.00 68 1020.5
20260508174506 13 236 0.0 11.3 0.00 0.00 0.00 69 1019.5
20260508174006 13 242 0.0 12.9 0.00 0.00 0.00 70 1019.5
20260508173507 13 215 3.2 12.9 0.00 0.00 0.00 71 1019.5
20260508173006 12 162 1.6 9.7 0.00 0.00 0.00 71 1019.5
20260508172506 12 249 0.0 12.9 0.00 0.00 0.00 72 1019.5
20260508172007 12 124 4.8 12.9 0.00 0.00 0.00 71 1019.5
20260508171506 12 236 3.2 9.7 0.00 0.00 0.00 71 1018.5
20260508171006 12 215 0.0 9.7 0.00 0.00 0.00 72 1018.5
20260508170507 12 208 3.2 9.7 0.00 0.00 0.00 73 1018.5
20260508170006 11 215 1.6 9.7 0.00 0.00 0.00 73 1018.5
20260508165506 11 251 1.6 9.7 0.00 0.00 0.00 73 1018.5
20260508165007 11 165 1.6 9.7 0.00 0.00 0.00 73 1018.5
20260508164507 11 179 0.0 14.5 0.00 0.00 0.00 73 1017.5
20260508164006 11 204 6.4 14.5 0.00 0.00 0.00 73 1017.5
20260508163506 11 161 0.0 4.8 0.00 0.00 0.00 73 1017.5
20260508163006 11 289 1.6 8.0 0.00 0.00 0.00 74 1018.5
20260508162507 11 253 0.0 11.3 0.00 0.00 0.00 74 1018.5
20260508162006 11 184 1.6 11.3 0.00 0.00 0.00 73 1018.5
20260508161006 10 131 3.2 9.7 0.00 0.00 0.00 74 1017.5
20260508160507 10 202 0.0 9.7 0.00 0.00 0.00 74 1017.5
20260508160006 10 156 1.6 9.7 0.00 0.00 0.00 75 1018.5
20260508155506 10 215 1.6 8.0 0.00 0.00 0.00 75 1018.5
20260508155007 10 182 0.0 8.0 0.00 0.00 0.00 75 1018.5
20260508154506 10 216 0.0 8.0 0.00 0.00 0.00 75 1018.5
20260508154006 10 130 0.0 8.0 0.00 0.00 0.00 75 1018.5
20260508153506 10 113 1.6 12.9 0.00 0.00 0.00 76 1018.5
20260508153006 10 182 0.0 12.9 0.00 0.00 0.00 76 1018.5
20260508152506 10 154 1.6 11.3 0.00 0.00 0.00 76 1018.5
20260508152006 10 156 0.0 8.0 0.00 0.00 0.00 76 1018.5
20260508151506 10 117 0.0 8.0 0.00 0.00 0.00 76 1018.5
20260508150506 9 190 0.0 9.7 0.00 0.00 0.00 76 1018.5
20260508150006 9 140 1.6 12.9 0.00 0.00 0.00 76 1019.5
20260508145508 9 171 6.4 14.5 0.00 0.00 0.00 76 1019.5
20260508145006 10 181 3.2 14.5 0.00 0.00 0.00 77 1019.5
20260508144506 10 145 4.8 12.9 0.00 0.00 0.00 78 1018.5
20260508144007 9 142 4.8 12.9 0.00 0.00 0.00 78 1018.5
20260508143506 9 194 0.0 12.9 0.00 0.00 0.00 79 1018.5
20260508143007 9 200 3.2 12.9 0.00 0.00 0.00 78 1018.5
20260508142006 9 220 0.0 9.7 0.00 0.00 0.00 78 1018.5
20260508141506 8 183 1.6 9.7 0.00 0.00 0.00 78 1018.5
20260508141006 8 195 1.6 9.7 0.00 0.00 0.00 78 1018.5
20260508140506 8 154 0.0 8.0 0.00 0.00 0.00 77 1018.5
20260508140006 8 192 0.0 3.2 0.00 0.00 0.00 76 1018.5
20260508135506 8 226 0.0 0.0 0.00 0.00 0.00 76 1018.5
20260508135007 8 215 0.0 0.0 0.00 0.00 0.00 75 1018.5
20260508134506 8 204 0.0 0.0 0.00 0.00 0.00 75 1017.5
20260508134006 8 238 0.0 0.0 0.00 0.00 0.00 73 1017.5
20260508133506 8 260 0.0 0.0 0.00 0.00 0.00 73 1017.5
20260508132505 8 260 0.0 0.0 0.00 0.00 0.00 72 1017.5
20260508132005 8 282 0.0 0.0 0.00 0.00 0.00 72 1017.5
20260508131506 9 282 0.0 0.0 0.00 0.00 0.00 72 1017.5
20260508130505 9 260 0.0 0.0 0.00 0.00 0.00 71 1017.5
20260508130006 9 260 0.0 0.0 0.00 0.00 0.00 71 1017.5
20260508125506 9 260 0.0 0.0 0.00 0.00 0.00 71 1017.5
20260508125006 9 260 0.0 0.0 0.00 0.00 0.00 71 1017.5
20260508124506 10 260 0.0 0.0 0.00 0.00 0.00 71 1017.5
20260508124006 10 260 0.0 0.0 0.00 0.00 0.00 71 1017.5
20260508123506 10 260 0.0 0.0 0.00 0.00 0.00 71 1017.5
20260508123006 10 260 0.0 0.0 0.00 0.00 0.00 70 1017.5
20260508122506 10 260 0.0 0.0 0.00 0.00 0.00 70 1017.5
20260508122006 10 260 0.0 0.0 0.00 0.00 0.00 70 1017.5
20260508121506 10 260 0.0 0.0 0.00 0.00 0.00 70 1017.5
20260508120505 10 260 0.0 0.0 0.00 0.00 0.00 70 1017.5
20260508120006 10 260 0.0 0.0 0.00 0.00 0.00 70 1016.5
20260508115506 10 290 0.0 0.0 0.00 0.00 0.00 69 1016.5
20260508115005 10 253 0.0 0.0 0.00 0.00 0.00 69 1016.5
20260508114505 10 279 0.0 0.0 0.00 0.00 0.00 69 1016.5
20260508114005 10 263 0.0 8.0 0.00 0.00 0.00 69 1016.5
20260508113505 10 275 0.0 8.0 0.00 0.00 0.00 69 1016.5
20260508113006 10 282 0.0 8.0 0.00 0.00 0.00 69 1016.5
20260508112506 10 260 0.0 0.0 0.00 0.00 0.00 69 1016.5
20260508112006 10 271 0.0 0.0 0.00 0.00 0.00 69 1016.5
20260508111505 10 246 0.0 0.0 0.00 0.00 0.00 69 1016.5
20260508111006 10 252 0.0 0.0 0.00 0.00 0.00 69 1016.5
20260508110505 10 238 0.0 0.0 0.00 0.00 0.00 69 1016.5
20260508110006 10 260 0.0 0.0 0.00 0.00 0.00 69 1016.5
20260508105005 10 259 0.0 0.0 0.00 0.00 0.00 69 1016.5
20260508104505 10 260 0.0 0.0 0.00 0.00 0.00 69 1016.5
20260508104006 10 260 0.0 0.0 0.00 0.00 0.00 69 1016.5
20260508103006 11 260 0.0 0.0 0.00 0.00 0.00 68 1016.5
20260508102506 11 249 0.0 0.0 0.00 0.00 0.00 68 1016.5
20260508102005 11 282 0.0 0.0 0.00 0.00 0.00 68 1016.5
20260508101506 11 282 0.0 0.0 0.00 0.00 0.00 67 1016.5
20260508101006 11 282 0.0 0.0 0.00 0.00 0.00 67 1016.5
20260508100506 11 282 0.0 0.0 0.00 0.00 0.00 67 1016.5
20260508100005 11 282 0.0 0.0 0.00 0.00 0.00 66 1016.5
20260508095506 11 282 0.0 0.0 0.00 0.00 0.00 66 1016.5
20260508095006 11 282 0.0 0.0 0.00 0.00 0.00 66 1016.5
20260508094506 11 282 0.0 0.0 0.00 0.00 0.00 66 1016.5
20260508094005 11 282 0.0 0.0 0.00 0.00 0.00 66 1016.5
20260508093505 11 282 0.0 0.0 0.00 0.00 0.00 65 1016.5
20260508093006 11 282 0.0 0.0 0.00 0.00 0.00 65 1016.5
20260508092505 11 282 0.0 0.0 0.00 0.00 0.00 64 1016.5
20260508092005 11 282 0.0 0.0 0.00 0.00 0.00 63 1016.5
20260508091506 11 282 0.0 0.0 0.00 0.00 0.00 62 1016.5
20260508091005 11 282 0.0 0.0 0.00 0.00 0.00 62 1016.5
20260508090505 11 282 0.0 0.0 0.00 0.00 0.00 61 1016.5
20260508090005 11 282 0.0 0.0 0.00 0.00 0.00 61 1015.5
20260508085005 11 282 0.0 0.0 0.00 0.00 0.00 60 1015.5
20260508084505 12 282 0.0 0.0 0.00 0.00 0.00 59 1015.5
20260508084005 12 282 0.0 0.0 0.00 0.00 0.00 59 1015.5
20260508083505 12 282 0.0 0.0 0.00 0.00 0.00 58 1015.5
20260508083005 12 282 0.0 0.0 0.00 0.00 0.00 58 1015.5
20260508082505 12 282 0.0 0.0 0.00 0.00 0.00 57 1015.5
20260508082006 12 282 0.0 0.0 0.00 0.00 0.00 57 1015.5
20260508081505 12 282 0.0 0.0 0.00 0.00 0.00 57 1015.5
20260508080005 12 282 0.0 0.0 0.00 0.00 0.00 56 1015.5
20260508075506 12 282 0.0 0.0 0.00 0.00 0.00 55 1015.5
20260508074005 13 282 0.0 0.0 0.00 0.00 0.00 54 1014.5
20260508073005 13 282 0.0 0.0 0.00 0.00 0.00 54 1015.5
20260508072005 13 282 0.0 0.0 0.00 0.00 0.00 53 1015.5
20260508071505 13 282 0.0 0.0 0.00 0.00 0.00 53 1015.5
20260508071005 13 282 0.0 0.0 0.00 0.00 0.00 53 1015.5
20260508070505 13 282 0.0 0.0 0.00 0.00 0.00 53 1015.5
20260508070005 13 282 0.0 0.0 0.00 0.00 0.00 52 1015.5
20260508065506 13 282 0.0 0.0 0.00 0.00 0.00 52 1015.5
20260508065005 13 282 0.0 0.0 0.00 0.00 0.00 52 1015.5
20260508064505 13 282 0.0 0.0 0.00 0.00 0.00 52 1015.5
20260508064005 13 282 0.0 0.0 0.00 0.00 0.00 51 1015.5
20260508063505 13 282 0.0 0.0 0.00 0.00 0.00 51 1015.5
20260508063006 14 282 0.0 0.0 0.00 0.00 0.00 51 1015.5
20260508062505 14 282 0.0 0.0 0.00 0.00 0.00 51 1015.5